Find STARLINK-37507

NORAD ID: 70581 Constellation: starlink operational
LEOCIRCULARRETROGRADE

Live Position

Loading 3D Globe...

About STARLINK-37507

Description loading...

Upcoming Passes

Passes for default location (London). Set your location on the main map for personalized predictions.

Altitude History

Loading altitude history...

Two-Line Element Set

1 70581C 26097X 26121.90326389 -.00294970 00000+0 -42310-3 0 1219
2 70581 97.2854 316.5663 0008599 254.3604 125.1710 16.05534424 15
Epoch: May 1, 2026 • Age: 28 hours